,,,PA_Meas_PMT16A,,PR_Meas_QMR101_102,,RH_Meas_QMH101,,SR_Meas_QMS101,,TA_Meas_QMH101,,GenWind,,GenWind,
date,time,status,PA,status,PR,status,RH,status,SR,status,TA,status,DirAvg,status,SpdAvg,
2011-01-02, 00:00:04,VALID,998.708,VALID,0,VALID,91.5326,VALID,0,VALID,24.8136,VALID,46,VALID,0.318359,
2011-01-02, 00:01:04,VALID,998.726,VALID,0,VALID,91.5326,VALID,0,VALID,24.8332,VALID,46,VALID,0.279687,
2011-01-02, 00:02:04,VALID,998.678,VALID,0,VALID,91.4639,VALID,0,VALID,24.8136,VALID,46,VALID,0.0621094,
2011-01-02, 00:03:04,VALID,998.658,VALID,0,VALID,91.441,VALID,0,VALID,24.7922,VALID,46,VALID,0.237891,
2011-01-02, 00:04:04,VALID,998.651,VALID,0,VALID,91.4715,VALID,0,VALID,24.7727,VALID,46,VALID,0.333594,
2011-01-02, 00:05:04,VALID,998.631,VALID,0,VALID,91.4486,VALID,0,VALID,24.8136,VALID,46,VALID,0.354688,
2011-01-02, 00:06:04,VALID,998.635,VALID,0,VALID,91.4868,VALID,0,VALID,24.8136,VALID,46,VALID,0.515234,
2011-01-02, 00:07:04,VALID,998.62,VALID,0,VALID,91.4486,VALID,0,VALID,24.7922,VALID,66,VALID,0.699219,
2011-01-02, 00:08:04,VALID,998.606,VALID,0,VALID,91.3876,VALID,0,VALID,24.8136,VALID,78,VALID,0.607422,
2011-01-02, 00:09:04,VALID,998.568,VALID,0,VALID,91.3037,VALID,0,VALID,24.8136,VALID,78,VALID,0.606641,
2011-01-02, 00:10:04,VALID,998.56,VALID,0,VALID,91.235,VALID,0,VALID,24.8136,VALID,78,VALID,0.526563,
2011-01-02, 00:11:04,VALID,998.553,VALID,0,VALID,91.1434,VALID,0,VALID,24.7727,VALID,75,VALID,0.7125,
2011-01-02, 00:12:04,VALID,998.532,VALID,0,VALID,91.09,VALID,0,VALID,24.7746,VALID,43,VALID,0.747266,
2011-01-02, 00:13:04,VALID,998.533,VALID,0,VALID,91.029,VALID,0,VALID,24.7746,VALID,31,VALID,0.807813,
2011-01-02, 00:14:04,VALID,998.464,VALID,0,VALID,91.0061,VALID,0,VALID,24.7142,VALID,31,VALID,0.740625,
2011-01-02, 00:15:04,VALID,998.451,VALID,0,VALID,91.0519,VALID,0,VALID,24.716,VALID,31,VALID,0.837891,
2011-01-02, 00:16:04,VALID,998.426,VALID,0,VALID,91.0748,VALID,0,VALID,24.6751,VALID,31,VALID,0.838672,
2011-01-02, 00:17:04,VALID,998.392,VALID,0,VALID,91.1053,VALID,0,VALID,24.6575,VALID,31,VALID,0.874609,
2011-01-02, 00:18:04,VALID,998.365,VALID,0,VALID,91.2045,VALID,0,VALID,24.638,VALID,31,VALID,0.780469,
2011-01-02, 00:19:04,VALID,998.354,VALID,0,VALID,91.2884,VALID,0,VALID,24.6184,VALID,31,VALID,0.723828,
2011-01-02, 00:20:04,VALID,998.317,VALID,0,VALID,91.3494,VALID,0,VALID,24.5989,VALID,31,VALID,0.639453,
2011-01-02, 00:21:04,VALID,998.283,VALID,0,VALID,91.4028,VALID,0,VALID,24.5775,VALID,31,VALID,0.725,
2011-01-02, 00:22:04,VALID,998.272,VALID,0,VALID,91.4791,VALID,0,VALID,24.5989,VALID,31,VALID,0.599219,
2011-01-02, 00:23:04,VALID,998.217,VALID,0,VALID,91.5554,VALID,0,VALID,24.5989,VALID,31,VALID,0.479297,
2011-01-02, 00:24:04,VALID,998.171,VALID,0,VALID,91.6088,VALID,0,VALID,24.5989,VALID,31,VALID,0.473828,
2011-01-02, 00:25:04,VALID,998.159,VALID,0,VALID,91.6317,VALID,0,VALID,24.5989,VALID,31,VALID,0.499219,
2011-01-02, 00:26:04,VALID,998.147,VALID,0,VALID,91.6775,VALID,0,VALID,24.5989,VALID,31,VALID,0.438672,
2011-01-02, 00:27:04,VALID,998.153,VALID,0,VALID,91.6851,VALID,0,VALID,24.5794,VALID,31,VALID,0.546484,
2011-01-02, 00:28:04,VALID,998.149,VALID,0,VALID,91.6851,VALID,0,VALID,24.558,VALID,31,VALID,0.610937,
2011-01-02, 00:29:04,VALID,998.163,VALID,0,VALID,91.7462,VALID,0,VALID,24.5775,VALID,31,VALID,0.547656,
2011-01-02, 00:30:04,VALID,998.168,VALID,0,VALID,91.7843,VALID,0.112286,VALID,24.5775,VALID,31,VALID,0.549609,
2011-01-02, 00:31:04,VALID,998.178,VALID,0,VALID,91.7767,VALID,0,VALID,24.5775,VALID,31,VALID,0.391406,
2011-01-02, 00:32:04,VALID,998.175,VALID,0,VALID,91.8072,VALID,0,VALID,24.5989,VALID,31,VALID,0.401953,
2011-01-02, 00:33:04,VALID,998.211,VALID,0,VALID,91.7843,VALID,0,VALID,24.5794,VALID,31,VALID,0.397266,
2011-01-02, 00:34:04,VALID,998.204,VALID,0,VALID,91.792,VALID,0,VALID,24.558,VALID,31,VALID,0.473828,
2011-01-02, 00:35:04,VALID,998.275,VALID,0,VALID,91.7767,VALID,0,VALID,24.558,VALID,82,VALID,0.735547,
2011-01-02, 00:36:04,VALID,998.317,VALID,0,VALID,91.7767,VALID,0,VALID,24.5775,VALID,100,VALID,0.631641,
2011-01-02, 00:37:04,VALID,998.335,VALID,0,VALID,91.7538,VALID,0,VALID,24.6184,VALID,100,VALID,0.578125,
2011-01-02, 00:38:04,VALID,998.356,VALID,0,VALID,91.7385,VALID,0,VALID,24.6361,VALID,100,VALID,0.422656,
2011-01-02, 00:39:04,VALID,998.388,VALID,0,VALID,91.6851,VALID,0,VALID,24.6361,VALID,100,VALID,0.232812,
2011-01-02, 00:40:04,VALID,998.4,VALID,0,VALID,91.647,VALID,0,VALID,24.6361,VALID,100,VALID,0.425,
2011-01-02, 00:41:04,VALID,998.422,VALID,0,VALID,91.5631,VALID,0,VALID,24.6361,VALID,100,VALID,0.467578,
2011-01-02, 00:42:04,VALID,998.428,VALID,0,VALID,91.5326,VALID,0,VALID,24.677,VALID,26,VALID,0.933594,
2011-01-02, 00:43:04,VALID,998.423,VALID,0,VALID,91.4639,VALID,0,VALID,24.677,VALID,24,VALID,0.768359,
2011-01-02, 00:44:04,VALID,998.45,VALID,0,VALID,91.4257,VALID,0,VALID,24.677,VALID,24,VALID,0.746875,
2011-01-02, 00:45:04,VALID,998.452,VALID,0,VALID,91.38,VALID,0,VALID,24.677,VALID,24,VALID,0.772656,
2011-01-02, 00:46:04,VALID,998.463,VALID,0,VALID,91.3952,VALID,0,VALID,24.6556,VALID,24,VALID,0.728516,
2011-01-02, 00:47:04,VALID,998.489,VALID,0,VALID,91.4028,VALID,0,VALID,24.6556,VALID,24,VALID,0.595703,
2011-01-02, 00:48:04,VALID,998.475,VALID,0,VALID,91.4181,VALID,0,VALID,24.6751,VALID,24,VALID,0.474219,
2011-01-02, 00:49:04,VALID,998.457,VALID,0,VALID,91.4257,VALID,0,VALID,24.6751,VALID,24,VALID,0.301172,
2011-01-02, 00:50:04,VALID,998.508,VALID,0,VALID,91.4257,VALID,0,VALID,24.6751,VALID,24,VALID,0.217187,
2011-01-02, 00:51:04,VALID,998.468,VALID,0,VALID,91.4334,VALID,0,VALID,24.6751,VALID,24,VALID,0.177344,
2011-01-02, 00:52:04,VALID,998.483,VALID,0,VALID,91.4257,VALID,0,VALID,24.6556,VALID,24,VALID,0.225,
2011-01-02, 00:53:04,VALID,998.47,VALID,0,VALID,91.4105,VALID,0,VALID,24.6556,VALID,24,VALID,0,
2011-01-02, 00:54:04,VALID,998.465,VALID,0,VALID,91.3952,VALID,0,VALID,24.6556,VALID,24,VALID,0,
2011-01-02, 00:55:04,VALID,998.436,VALID,0,VALID,91.3952,VALID,0,VALID,24.6556,VALID,24,VALID,0,
2011-01-02, 00:56:04,VALID,998.432,VALID,0,VALID,91.4181,VALID,0,VALID,24.6556,VALID,24,VALID,0,
2011-01-02, 00:57:04,VALID,998.423,VALID,0,VALID,91.4105,VALID,0,VALID,24.6556,VALID,24,VALID,0,
2011-01-02, 00:58:04,VALID,998.402,VALID,0,VALID,91.3876,VALID,0,VALID,24.6361,VALID,24,VALID,0.0808594,
2011-01-02, 00:59:04,VALID,998.369,VALID,0,VALID,91.441,VALID,0,VALID,24.677,VALID,61,VALID,0.46875,
2011-01-02, 01:00:04,VALID,998.369,VALID,0,VALID,91.4715,VALID,0,VALID,24.6946,VALID,78,VALID,0.49375,
2011-01-02, 01:01:04,VALID,998.368,VALID,0,VALID,91.4715,VALID,0,VALID,24.7142,VALID,79,VALID,0.530078,
2011-01-02, 01:02:04,VALID,998.372,VALID,0,VALID,91.4334,VALID,0,VALID,24.7142,VALID,78,VALID,0.460938,
2011-01-02, 01:03:04,VALID,998.35,VALID,0,VALID,91.3723,VALID,0,VALID,24.7746,VALID,103,VALID,0.617578,
2011-01-02, 01:04:04,VALID,998.337,VALID,0,VALID,91.2884,VALID,0,VALID,24.7727,VALID,146,VALID,1.0082,
2011-01-02, 01:05:04,VALID,998.303,VALID,0,VALID,91.1511,VALID,0,VALID,24.7922,VALID,146,VALID,0.698047,
2011-01-02, 01:06:04,VALID,998.274,VALID,0,VALID,90.9832,VALID,0,VALID,24.8117,VALID,146,VALID,0.477344,
2011-01-02, 01:07:04,VALID,998.256,VALID,0,VALID,90.8611,VALID,0,VALID,24.8527,VALID,146,VALID,0.458203,
2011-01-02, 01:08:04,VALID,998.235,VALID,0,VALID,90.762,VALID,0,VALID,24.8508,VALID,146,VALID,0.56875,
2011-01-02, 01:09:04,VALID,998.216,VALID,0,VALID,90.6399,VALID,0,VALID,24.8703,VALID,146,VALID,0.455078,
2011-01-02, 01:10:04,VALID,998.213,VALID,0,VALID,90.4949,VALID,0,VALID,24.8722,VALID,146,VALID,0.453516,
2011-01-02, 01:11:04,VALID,998.238,VALID,0,VALID,90.3805,VALID,0,VALID,24.8917,VALID,146,VALID,0.502734,
2011-01-02, 01:12:04,VALID,998.218,VALID,0,VALID,90.2431,VALID,0,VALID,24.8703,VALID,146,VALID,0.503125,
2011-01-02, 01:13:04,VALID,998.202,VALID,0,VALID,90.1516,VALID,0,VALID,24.8508,VALID,146,VALID,0.325391,
2011-01-02, 01:14:04,VALID,998.203,VALID,0,VALID,90.0448,VALID,0,VALID,24.8722,VALID,146,VALID,0.0195313,
2011-01-02, 01:15:04,VALID,998.232,VALID,0,VALID,89.9914,VALID,0,VALID,24.8722,VALID,146,VALID,0,
2011-01-02, 01:16:04,VALID,998.216,VALID,0,VALID,89.9761,VALID,0,VALID,24.8508,VALID,146,VALID,0,
2011-01-02, 01:17:04,VALID,998.173,VALID,0,VALID,89.9532,VALID,0,VALID,24.8703,VALID,146,VALID,0.848047,
2011-01-02, 01:18:04,VALID,998.18,VALID,0,VALID,89.8998,VALID,0,VALID,24.8508,VALID,131,VALID,0.620703,
2011-01-02, 01:19:04,VALID,998.181,VALID,0,VALID,89.8311,VALID,0,VALID,24.8527,VALID,142,VALID,0.986328,
2011-01-02, 01:20:04,VALID,998.194,VALID,0,VALID,89.7549,VALID,0,VALID,24.8527,VALID,141,VALID,1.41016,
2011-01-02, 01:21:04,VALID,998.16,VALID,0,VALID,89.6328,VALID,0,VALID,24.8527,VALID,142,VALID,1.21289,
2011-01-02, 01:22:04,VALID,998.135,VALID,0,VALID,89.4954,VALID,0,VALID,24.8313,VALID,129,VALID,1.19687,
2011-01-02, 01:23:04,VALID,998.129,VALID,0,VALID,89.4039,VALID,0,VALID,24.8722,VALID,126,VALID,0.985156,
2011-01-02, 01:24:04,VALID,998.077,VALID,0,VALID,89.3734,VALID,0,VALID,24.8527,VALID,115,VALID,1.37578,
2011-01-02, 01:25:04,VALID,998.077,VALID,0,VALID,89.3047,VALID,0,VALID,24.8313,VALID,111,VALID,1.05664,
2011-01-02, 01:26:04,VALID,998.026,VALID,0,VALID,89.2666,VALID,0,VALID,24.8527,VALID,111,VALID,1.21172,
2011-01-02, 01:27:04,VALID,998.029,VALID,0,VALID,89.2589,VALID,0,VALID,24.8527,VALID,100,VALID,0.484766,
2011-01-02, 01:28:04,VALID,998.008,VALID,0,VALID,89.1826,VALID,0,VALID,24.8313,VALID,103,VALID,1.14883,
2011-01-02, 01:29:04,VALID,997.977,VALID,0,VALID,89.114,VALID,0,VALID,24.8313,VALID,96,VALID,1.22031,
2011-01-02, 01:30:04,VALID,997.951,VALID,0,VALID,89.1597,VALID,0,VALID,24.8508,VALID,82,VALID,0.807422,
2011-01-02, 01:31:04,VALID,997.935,VALID,0,VALID,89.2818,VALID,0,VALID,24.8508,VALID,79,VALID,0.525391,
2011-01-02, 01:32:04,VALID,997.974,VALID,0,VALID,89.381,VALID,0,VALID,24.8527,VALID,18,VALID,0.569141,
2011-01-02, 01:33:04,VALID,997.969,VALID,0,VALID,89.4573,VALID,0,VALID,24.8332,VALID,354,VALID,0.741406,
2011-01-02, 01:34:04,VALID,997.966,VALID,0,VALID,89.4497,VALID,0,VALID,24.7727,VALID,50,VALID,0.523438,
2011-01-02, 01:35:04,VALID,997.984,VALID,0,VALID,89.4649,VALID,0,VALID,24.7941,VALID,45,VALID,0.486328,
2011-01-02, 01:36:04,VALID,997.929,VALID,0,VALID,89.5717,VALID,0,VALID,24.7941,VALID,45,VALID,0.269531,
2011-01-02, 01:37:04,VALID,997.931,VALID,0,VALID,89.7167,VALID,0,VALID,24.7746,VALID,45,VALID,0.464453,
2011-01-02, 01:38:04,VALID,997.882,VALID,0,VALID,89.8922,VALID,0,VALID,24.7941,VALID,45,VALID,0.400781,
2011-01-02, 01:39:04,VALID,997.88,VALID,0,VALID,89.9837,VALID,0,VALID,24.7941,VALID,45,VALID,0.10625,
2011-01-02, 01:40:04,VALID,997.854,VALID,0,VALID,90.0677,VALID,0,VALID,24.7941,VALID,45,VALID,0.43125,
2011-01-02, 01:41:04,VALID,997.801,VALID,0,VALID,90.1134,VALID,0,VALID,24.7727,VALID,45,VALID,0.502734,
2011-01-02, 01:42:04,VALID,997.76,VALID,0,VALID,90.1516,VALID,0,VALID,24.7922,VALID,14,VALID,0.639453,
2011-01-02, 01:43:04,VALID,997.721,VALID,0,VALID,90.1821,VALID,0,VALID,24.7922,VALID,14,VALID,0.46875,
2011-01-02, 01:44:04,VALID,997.681,VALID,0,VALID,90.1668,VALID,0,VALID,24.8136,VALID,14,VALID,0.410156,
2011-01-02, 01:45:04,VALID,997.69,VALID,0,VALID,90.205,VALID,0,VALID,24.7922,VALID,14,VALID,0.487891,
2011-01-02, 01:46:04,VALID,997.642,VALID,0,VALID,90.2584,VALID,0,VALID,24.7727,VALID,14,VALID,0.509766,
2011-01-02, 01:47:04,VALID,997.606,VALID,0,VALID,90.3271,VALID,0,VALID,24.7727,VALID,14,VALID,0.409766,
2011-01-02, 01:48:04,VALID,997.626,VALID,0,VALID,90.4263,VALID,0,VALID,24.7941,VALID,14,VALID,0.451562,
2011-01-02, 01:49:04,VALID,997.561,VALID,0,VALID,90.472,VALID,0,VALID,24.7746,VALID,14,VALID,0.485156,
2011-01-02, 01:50:04,VALID,997.576,VALID,0,VALID,90.5483,VALID,0,VALID,24.7746,VALID,14,VALID,0.59375,
2011-01-02, 01:51:04,VALID,997.549,VALID,0,VALID,90.6933,VALID,0,VALID,24.7142,VALID,14,VALID,0.551172,
2011-01-02, 01:52:04,VALID,997.539,VALID,0,VALID,90.7543,VALID,0,VALID,24.7356,VALID,14,VALID,0.558203,
2011-01-02, 01:53:04,VALID,997.546,VALID,0,VALID,90.8154,VALID,0,VALID,24.7142,VALID,14,VALID,0.449609,
2011-01-02, 01:54:04,VALID,997.493,VALID,0,VALID,90.823,VALID,0,VALID,24.716,VALID,14,VALID,0.526563,
2011-01-02, 01:55:04,VALID,997.504,VALID,0,VALID,90.8383,VALID,0,VALID,24.6751,VALID,14,VALID,0.269531,
2011-01-02, 01:56:04,VALID,997.522,VALID,0,VALID,90.8459,VALID,0,VALID,24.6556,VALID,14,VALID,0.238281,
2011-01-02, 01:57:04,VALID,997.531,VALID,0,VALID,90.9146,VALID,0,VALID,24.677,VALID,14,VALID,0.23125,
2011-01-02, 01:58:04,VALID,997.541,VALID,0,VALID,90.968,VALID,0,VALID,24.677,VALID,14,VALID,0.348437,
2011-01-02, 01:59:04,VALID,997.546,VALID,0,VALID,91.0061,VALID,0,VALID,24.638,VALID,14,VALID,0.321875,
2011-01-02, 02:00:04,VALID,997.527,VALID,0,VALID,91.0519,VALID,0,VALID,24.6166,VALID,14,VALID,0.449219,
2011-01-02, 02:01:04,VALID,997.531,VALID,0,VALID,91.0977,VALID,0,VALID,24.5971,VALID,14,VALID,0.469141,
2011-01-02, 02:02:04,VALID,997.541,VALID,0,VALID,91.1282,VALID,0,VALID,24.5775,VALID,14,VALID,0.542578,
2011-01-02, 02:03:04,VALID,997.543,VALID,0,VALID,91.2274,VALID,0,VALID,24.558,VALID,14,VALID,0.720703,
2011-01-02, 02:04:04,VALID,997.508,VALID,0,VALID,91.2274,VALID,0,VALID,24.5385,VALID,14,VALID,0.8375,
2011-01-02, 02:05:04,VALID,997.464,VALID,0,VALID,91.2655,VALID,0,VALID,24.5404,VALID,14,VALID,0.747266,
2011-01-02, 02:06:04,VALID,997.49,VALID,0,VALID,91.2045,VALID,0,VALID,24.4995,VALID,14,VALID,0.61875,
2011-01-02, 02:07:04,VALID,997.436,VALID,0,VALID,91.1358,VALID,0,VALID,24.4995,VALID,14,VALID,0.569922,
2011-01-02, 02:08:04,VALID,997.416,VALID,0,VALID,91.0595,VALID,0,VALID,24.4818,VALID,27,VALID,0.781641,
2011-01-02, 02:09:04,VALID,997.424,VALID,0,VALID,91.0671,VALID,0,VALID,24.48,VALID,33,VALID,0.875781,
2011-01-02, 02:10:04,VALID,997.415,VALID,0,VALID,91.1129,VALID,0,VALID,24.48,VALID,33,VALID,0.846094,
2011-01-02, 02:11:04,VALID,997.407,VALID,0,VALID,91.1206,VALID,0,VALID,24.4995,VALID,33,VALID,0.715234,
2011-01-02, 02:12:04,VALID,997.394,VALID,0,VALID,91.1434,VALID,0,VALID,24.4995,VALID,33,VALID,0.501562,
2011-01-02, 02:13:04,VALID,997.411,VALID,0,VALID,91.1129,VALID,0,VALID,24.4995,VALID,33,VALID,0.433203,
2011-01-02, 02:14:04,VALID,997.397,VALID,0,VALID,91.1358,VALID,0,VALID,24.519,VALID,33,VALID,0.308203,
2011-01-02, 02:15:04,VALID,997.409,VALID,0,VALID,91.0748,VALID,0,VALID,24.5013,VALID,33,VALID,0.267969,
2011-01-02, 02:16:04,VALID,997.411,VALID,0,VALID,91.1053,VALID,0,VALID,24.4604,VALID,33,VALID,0.247266,
2011-01-02, 02:17:04,VALID,997.421,VALID,0,VALID,91.1053,VALID,0,VALID,24.4604,VALID,33,VALID,0.34375,
2011-01-02, 02:18:04,VALID,997.389,VALID,0,VALID,91.1511,VALID,0,VALID,24.4604,VALID,33,VALID,0.429297,
2011-01-02, 02:19:04,VALID,997.406,VALID,0,VALID,91.2731,VALID,0.112286,VALID,24.48,VALID,33,VALID,0.420312,
2011-01-02, 02:20:04,VALID,997.392,VALID,0,VALID,91.3723,VALID,0,VALID,24.4995,VALID,33,VALID,0.459766,
2011-01-02, 02:21:04,VALID,997.425,VALID,0,VALID,91.4563,VALID,0,VALID,24.4995,VALID,33,VALID,0.395312,
2011-01-02, 02:22:04,VALID,997.422,VALID,0,VALID,91.5097,VALID,0,VALID,24.519,VALID,33,VALID,0.376953,
2011-01-02, 02:23:04,VALID,997.41,VALID,0,VALID,91.5402,VALID,0,VALID,24.4995,VALID,33,VALID,0.291406,
2011-01-02, 02:24:04,VALID,997.422,VALID,0,VALID,91.5783,VALID,0,VALID,24.519,VALID,33,VALID,0.322266,
2011-01-02, 02:25:04,VALID,997.415,VALID,0,VALID,91.6012,VALID,0,VALID,24.519,VALID,33,VALID,0.35625,
2011-01-02, 02:26:04,VALID,997.41,VALID,0,VALID,91.6012,VALID,0,VALID,24.5385,VALID,33,VALID,0.362891,
2011-01-02, 02:27:04,VALID,997.409,VALID,0,VALID,91.6088,VALID,0,VALID,24.519,VALID,33,VALID,0.289453,
2011-01-02, 02:28:04,VALID,997.424,VALID,0,VALID,91.6165,VALID,0,VALID,24.5385,VALID,33,VALID,0.166406,
2011-01-02, 02:29:04,VALID,997.448,VALID,0,VALID,91.5783,VALID,0,VALID,24.4995,VALID,359,VALID,0.813281,
2011-01-02, 02:30:04,VALID,997.456,VALID,0,VALID,91.4563,VALID,0,VALID,24.4214,VALID,319,VALID,1.14805,
2011-01-02, 02:31:04,VALID,997.445,VALID,0,VALID,91.441,VALID,0,VALID,24.3824,VALID,328,VALID,1.03633,
2011-01-02, 02:32:04,VALID,997.422,VALID,0,VALID,91.4791,VALID,0,VALID,24.3824,VALID,317,VALID,0.830469,
2011-01-02, 02:33:04,VALID,997.368,VALID,0,VALID,91.5554,VALID,0,VALID,24.3824,VALID,317,VALID,0.137109,
2011-01-02, 02:34:04,VALID,997.346,VALID,0,VALID,91.6012,VALID,0,VALID,24.3824,VALID,317,VALID,0.335938,
2011-01-02, 02:35:04,VALID,997.327,VALID,0,VALID,91.6775,VALID,0,VALID,24.4214,VALID,334,VALID,0.537109,
2011-01-02, 02:36:04,VALID,997.276,VALID,0,VALID,91.6775,VALID,0,VALID,24.4019,VALID,73,VALID,0.892969,
2011-01-02, 02:37:04,VALID,997.235,VALID,0,VALID,91.6623,VALID,0,VALID,24.4214,VALID,73,VALID,0.616406,
2011-01-02, 02:38:04,VALID,997.24,VALID,0,VALID,91.6241,VALID,0,VALID,24.4604,VALID,89,VALID,0.841797,
2011-01-02, 02:39:04,VALID,997.214,VALID,0,VALID,91.586,VALID,0,VALID,24.48,VALID,89,VALID,0.739062,
2011-01-02, 02:40:04,VALID,997.196,VALID,0,VALID,91.4715,VALID,0,VALID,24.4995,VALID,118,VALID,0.983594,
2011-01-02, 02:41:05,VALID,997.196,VALID,0,VALID,91.3418,VALID,0.112286,VALID,24.4995,VALID,119,VALID,1.05703,
2011-01-02, 02:42:05,VALID,997.17,VALID,0,VALID,91.174,VALID,0,VALID,24.4586,VALID,119,VALID,1.08984,
2011-01-02, 02:43:05,VALID,997.233,VALID,0,VALID,90.9909,VALID,0,VALID,24.4604,VALID,119,VALID,0.980078,
2011-01-02, 02:44:05,VALID,997.198,VALID,0,VALID,90.8154,VALID,0,VALID,24.4409,VALID,119,VALID,1.0875,
2011-01-02, 02:45:05,VALID,997.241,VALID,0,VALID,90.762,VALID,0,VALID,24.4214,VALID,123,VALID,1.04844,
2011-01-02, 02:46:05,VALID,997.244,VALID,0,VALID,90.823,VALID,0,VALID,24.4196,VALID,141,VALID,0.929297,
2011-01-02, 02:47:05,VALID,997.246,VALID,0,VALID,90.8383,VALID,0,VALID,24.4409,VALID,145,VALID,0.813672,
2011-01-02, 02:48:05,VALID,997.277,VALID,0,VALID,90.8917,VALID,0,VALID,24.4,VALID,156,VALID,0.783594,
2011-01-02, 02:49:05,VALID,997.261,VALID,0,VALID,90.968,VALID,0.112286,VALID,24.4409,VALID,168,VALID,1.00312,
2011-01-02, 02:50:05,VALID,997.302,VALID,0,VALID,91.0061,VALID,0,VALID,24.48,VALID,191,VALID,1.2293,
2011-01-02, 02:51:05,VALID,997.302,VALID,0,VALID,91.0824,VALID,0,VALID,24.5385,VALID,189,VALID,1.4418,
2011-01-02, 02:52:05,VALID,997.294,VALID,0,VALID,91.0748,VALID,0,VALID,24.5971,VALID,222,VALID,1.77734,
2011-01-02, 02:53:05,VALID,997.286,VALID,0,VALID,91.0214,VALID,0.112286,VALID,24.5971,VALID,230,VALID,1.93516,
2011-01-02, 02:54:05,VALID,997.289,VALID,0,VALID,90.9451,VALID,0,VALID,24.5971,VALID,223,VALID,1.33086,
2011-01-02, 02:55:05,VALID,997.272,VALID,0,VALID,90.8764,VALID,0,VALID,24.5971,VALID,225,VALID,1.34102,
2011-01-02, 02:56:05,VALID,997.246,VALID,0,VALID,90.8306,VALID,0.112286,VALID,24.5757,VALID,221,VALID,1.97734,
2011-01-02, 02:57:05,VALID,997.241,VALID,0,VALID,90.7849,VALID,0,VALID,24.5971,VALID,208,VALID,1.04375,
2011-01-02, 02:58:05,VALID,997.231,VALID,0,VALID,90.7238,VALID,0.112286,VALID,24.6166,VALID,200,VALID,0.652734,
2011-01-02, 02:59:05,VALID,997.2,VALID,0,VALID,90.6628,VALID,0.112286,VALID,24.6166,VALID,227,VALID,0.941797,
2011-01-02, 03:00:05,VALID,997.206,VALID,0,VALID,90.6017,VALID,0,VALID,24.6361,VALID,205,VALID,1.00781,
2011-01-02, 03:01:05,VALID,997.22,VALID,0,VALID,90.4949,VALID,0,VALID,24.6751,VALID,228,VALID,1.15508,
2011-01-02, 03:02:05,VALID,997.236,VALID,0,VALID,90.3347,VALID,0,VALID,24.716,VALID,231,VALID,1.24063,
2011-01-02, 03:03:05,VALID,997.249,VALID,0,VALID,90.1134,VALID,0,VALID,24.7142,VALID,234,VALID,0.761328,
2011-01-02, 03:04:05,VALID,997.234,VALID,0,VALID,89.8769,VALID,0,VALID,24.7337,VALID,286,VALID,0.719141,
2011-01-02, 03:05:05,VALID,997.253,VALID,0,VALID,89.7549,VALID,0,VALID,24.6946,VALID,319,VALID,0.774219,
2011-01-02, 03:06:05,VALID,997.246,VALID,0,VALID,89.7854,VALID,0,VALID,24.6556,VALID,319,VALID,0.6125,
2011-01-02, 03:07:05,VALID,997.234,VALID,0,VALID,89.8846,VALID,0,VALID,24.6166,VALID,319,VALID,0.628516,
2011-01-02, 03:08:05,VALID,997.23,VALID,0,VALID,90.0066,VALID,0,VALID,24.558,VALID,319,VALID,0.632422,
2011-01-02, 03:09:05,VALID,997.217,VALID,0,VALID,90.0677,VALID,0,VALID,24.519,VALID,319,VALID,0.410937,
2011-01-02, 03:10:05,VALID,997.235,VALID,0,VALID,90.1134,VALID,0,VALID,24.4409,VALID,319,VALID,0.559375,
2011-01-02, 03:11:05,VALID,997.231,VALID,0,VALID,90.3042,VALID,0,VALID,24.4019,VALID,319,VALID,0.382813,
2011-01-02, 03:12:05,VALID,997.229,VALID,0,VALID,90.5026,VALID,0,VALID,24.3629,VALID,319,VALID,0.392578,
2011-01-02, 03:13:05,VALID,997.247,VALID,0,VALID,90.6628,VALID,0,VALID,24.3433,VALID,319,VALID,0.353125,
2011-01-02, 03:14:05,VALID,997.214,VALID,0,VALID,90.8306,VALID,0,VALID,24.3433,VALID,319,VALID,0.526563,
2011-01-02, 03:15:05,VALID,997.198,VALID,0,VALID,90.9527,VALID,0,VALID,24.3043,VALID,319,VALID,0.536719,
2011-01-02, 03:16:05,VALID,997.174,VALID,0,VALID,91.0443,VALID,0,VALID,24.2848,VALID,336,VALID,0.752344,
2011-01-02, 03:17:05,VALID,997.191,VALID,0,VALID,91.174,VALID,0,VALID,24.2653,VALID,40,VALID,1.02578,
2011-01-02, 03:18:05,VALID,997.18,VALID,0,VALID,91.3113,VALID,0,VALID,24.2848,VALID,52,VALID,1.08203,
2011-01-02, 03:19:05,VALID,997.178,VALID,0,VALID,91.2655,VALID,0,VALID,24.2263,VALID,71,VALID,1.28789,
2011-01-02, 03:20:05,VALID,997.175,VALID,0,VALID,91.174,VALID,0,VALID,24.2067,VALID,88,VALID,1.08164,
2011-01-02, 03:21:05,VALID,997.183,VALID,0,VALID,91.1206,VALID,0,VALID,24.1677,VALID,122,VALID,1.22656,
2011-01-02, 03:22:05,VALID,997.158,VALID,0,VALID,91.1663,VALID,0,VALID,24.1677,VALID,128,VALID,1.47344,
2011-01-02, 03:23:05,VALID,997.157,VALID,0,VALID,91.2045,VALID,0,VALID,24.1482,VALID,128,VALID,1.46836,
2011-01-02, 03:24:05,VALID,997.169,VALID,0,VALID,91.235,VALID,0,VALID,24.1677,VALID,125,VALID,1.51133,
2011-01-02, 03:25:05,VALID,997.145,VALID,0,VALID,91.296,VALID,0,VALID,24.1287,VALID,127,VALID,1.52891,
2011-01-02, 03:26:05,VALID,997.153,VALID,0,VALID,91.3113,VALID,0,VALID,24.1305,VALID,134,VALID,1.53164,
2011-01-02, 03:27:05,VALID,997.161,VALID,0,VALID,91.3266,VALID,0,VALID,24.111,VALID,141,VALID,1.75117,
2011-01-02, 03:28:05,VALID,997.16,VALID,0,VALID,91.4105,VALID,0,VALID,24.15,VALID,147,VALID,2.09648,
2011-01-02, 03:29:05,VALID,997.174,VALID,0,VALID,91.441,VALID,0,VALID,24.1872,VALID,143,VALID,2.25039,
2011-01-02, 03:30:05,VALID,997.178,VALID,0,VALID,91.4563,VALID,0,VALID,24.2086,VALID,136,VALID,2.31797,
2011-01-02, 03:31:05,VALID,997.173,VALID,0,VALID,91.4334,VALID,0,VALID,24.2281,VALID,128,VALID,1.99141,
2011-01-02, 03:32:05,VALID,997.141,VALID,0,VALID,91.4486,VALID,0,VALID,24.2281,VALID,129,VALID,1.66602,
2011-01-02, 03:33:05,VALID,997.187,VALID,0,VALID,91.4486,VALID,0,VALID,24.2281,VALID,131,VALID,1.64219,
2011-01-02, 03:34:05,VALID,997.184,VALID,0,VALID,91.441,VALID,0,VALID,24.2281,VALID,142,VALID,1.81641,
2011-01-02, 03:35:05,VALID,997.204,VALID,0,VALID,91.3952,VALID,0,VALID,24.2281,VALID,149,VALID,1.80781,
2011-01-02, 03:36:05,VALID,997.201,VALID,0,VALID,91.3037,VALID,0,VALID,24.2671,VALID,141,VALID,1.4543,
2011-01-02, 03:37:05,VALID,997.215,VALID,0,VALID,91.2045,VALID,0,VALID,24.308,VALID,145,VALID,1.36016,
2011-01-02, 03:38:05,VALID,997.225,VALID,0,VALID,91.0443,VALID,0,VALID,24.3062,VALID,147,VALID,1.06328,
2011-01-02, 03:39:05,VALID,997.207,VALID,0,VALID,90.8993,VALID,0,VALID,24.3257,VALID,156,VALID,0.834375,
2011-01-02, 03:40:05,VALID,997.208,VALID,0,VALID,90.8001,VALID,0,VALID,24.3257,VALID,168,VALID,0.812891,
2011-01-02, 03:41:05,VALID,997.21,VALID,0,VALID,90.7162,VALID,0,VALID,24.3433,VALID,168,VALID,0.846484,
2011-01-02, 03:42:05,VALID,997.244,VALID,0,VALID,90.6323,VALID,0,VALID,24.3433,VALID,168,VALID,0.584766,
2011-01-02, 03:43:05,VALID,997.242,VALID,0,VALID,90.556,VALID,0,VALID,24.3647,VALID,168,VALID,0.580078,
2011-01-02, 03:44:05,VALID,997.23,VALID,0,VALID,90.472,VALID,0,VALID,24.3433,VALID,168,VALID,0.473437,
2011-01-02, 03:45:05,VALID,997.242,VALID,0,VALID,90.4186,VALID,0,VALID,24.3647,VALID,100,VALID,0.728516,
2011-01-02, 03:46:05,VALID,997.256,VALID,0,VALID,90.3805,VALID,0,VALID,24.3238,VALID,65,VALID,0.763672,